Address 0xdd7ec43863408cd689bba63260cce5926fe80c7d 3

 
 
Txn Hash Method
Block
From
To
Value [Txn Fee]
0x0880c6071b03a79358cf6331f71ce31efc784f5f085734d8596eb7f7f248063f0x7c025200109436842021-09-15 19:18:471 day 5 hrs ago0xdd7ec43863408cd689bba63260cce5926fe80c7dOUT 1inch: Router V30 BNB0.00536088
0x080c148cd0f2a921ec2ada48b30e79370cbfcfd9939b8d55b00f95c41e03c1caBurn109103602021-09-14 15:24:482 days 9 hrs ago0xdd7ec43863408cd689bba63260cce5926fe80c7dOUT Mirror Protocol: UST Token0 BNB0.000190115
0xdb425cdda26247f9d0b74f0cf0ec7bd264437045400a753437f9172773d9f2470x7c025200109103432021-09-14 15:23:572 days 9 hrs ago0xdd7ec43863408cd689bba63260cce5926fe80c7dOUT 1inch: Router V30 BNB0.00582496
0x0e19b4feb451f906bce0307afed263a36705d51861978412c8821e5b0c05131dApprove109103292021-09-14 15:23:152 days 9 hrs ago0xdd7ec43863408cd689bba63260cce5926fe80c7dOUT Binance: BUSD Stablecoin0 BNB0.00088812
0xa46bd246f09f8ae934b85592909de6c54de4c54a4b52b02893dae651a5fa1f62Stake108205982021-09-11 12:23:175 days 12 hrs ago0xdd7ec43863408cd689bba63260cce5926fe80c7dOUT 0x4076cc26efee47825917d0fec3a79d0bb9a6bb5c0 BNB0.00102907
0xddfcf0436bd5a82ce202846bf2b3623ccaade6fecc658a858f50a1740638fa0dGet Reward108205832021-09-11 12:22:325 days 12 hrs ago0xdd7ec43863408cd689bba63260cce5926fe80c7dOUT 0x4076cc26efee47825917d0fec3a79d0bb9a6bb5c0 BNB0.00064996
0x9d08e2435f08ef8f7fa8ac38fbff475a8267e2ff5c11ab231bf1a54a89e375e6Claim108205452021-09-11 12:20:385 days 12 hrs ago0xdd7ec43863408cd689bba63260cce5926fe80c7dOUT 0x0d59d439a4466ef2b22d50d11eabccbd54f420520 BNB0.000548035
0xd25724bed85c3a01948e763c63f14267700f2320fb2f7a488990897ff4055cebBurn106975832021-09-07 4:30:029 days 20 hrs ago0xdd7ec43863408cd689bba63260cce5926fe80c7dOUT Mirror Protocol: UST Token0 BNB0.000190055
0xe36e7b2c4a1039aa0ed6905721b3c4b76483880f56c2d83c13b1ce5820fec87c0x7c025200106975652021-09-07 4:29:089 days 20 hrs ago0xdd7ec43863408cd689bba63260cce5926fe80c7dOUT 1inch: Router V30 BNB0.0027804
0x37908dc113fecd285718f8255a1097c4fa4a9c7e6eceb7f96f78749db785ee1aSwap Exact Token...106975522021-09-07 4:28:299 days 20 hrs ago0xdd7ec43863408cd689bba63260cce5926fe80c7dOUT 0x78df70615ffc8066cc0887917f2cd72092c864090 BNB0.001807665
0x8c70db95c1210cc11e8b7d3865db80d544930536eea91f6518b322b03ec83a00Deposit106637522021-09-06 0:05:1811 days 1 hr ago0xdd7ec43863408cd689bba63260cce5926fe80c7dOUT 0x31de05f28568e3d3d612bfa6a78b3566763674700 BNB0.000535495
0x07734cb40684f52d197c89ae21ab2402fe7677973c67fc9e549c95901b8b96f2Add Liquidity ET...106637382021-09-06 0:04:3611 days 1 hr ago0xdd7ec43863408cd689bba63260cce5926fe80c7dOUT 0x78df70615ffc8066cc0887917f2cd72092c864092 BNB0.00103482
0xee6926e0c6888dcb30194e40fb1429ac5e249164d726902e1577f558bea98fb4Approve106637232021-09-06 0:03:5111 days 1 hr ago0xdd7ec43863408cd689bba63260cce5926fe80c7dOUT 0xfe56d5892bdffc7bf58f2e84be1b2c32d21c308b0 BNB0.00023576
0xfd5f4be88a8a1b066d5707157e994397bd27b30f93a32e11a14c6e66f42f6709Approve106636982021-09-06 0:02:3611 days 1 hr ago0xdd7ec43863408cd689bba63260cce5926fe80c7dOUT 0x6170b6d96167346896169b35e1e9585feab873bb0 BNB0.000221795
0x39ecf2141eac47bba17f7fcf489f84eb0b271759e20846ce33fe4169bc249829Swap Exact Token...106636932021-09-06 0:02:2111 days 1 hr ago0xdd7ec43863408cd689bba63260cce5926fe80c7dOUT 0x78df70615ffc8066cc0887917f2cd72092c864090 BNB0.00337015
0xe6fade44ca3c80eaadc087ab07d7333f0055292550c1ac86e74fc4217b964268Approve106636812021-09-06 0:01:4511 days 1 hr ago0xdd7ec43863408cd689bba63260cce5926fe80c7dOUT Binance: BUSD Stablecoin0 BNB0.00044406
0xec56ef96808434a74e4c4c69a20bb2a990e2106fa23233ff766a9562573351caSwap Exact Token...106636672021-09-06 0:01:0311 days 1 hr ago0xdd7ec43863408cd689bba63260cce5926fe80c7dOUT 0x78df70615ffc8066cc0887917f2cd72092c864090 BNB0.00361922
0x9cdab5f1d28217d08808f864cb1e77143400978ad24848f3ee6aa079e347fc5bApprove106636502021-09-06 0:00:1211 days 1 hr ago0xdd7ec43863408cd689bba63260cce5926fe80c7dOUT USD Coin: USDC Token0 BNB0.00023576
0x947d2741e45959f2f39e60fc6508bfb024199964b6ddd082b6446eff58619d89Burn106635782021-09-05 23:56:3611 days 1 hr ago0xdd7ec43863408cd689bba63260cce5926fe80c7dOUT Mirror Protocol: UST Token0 BNB0.000190115
0xd742cb64d1127c2b9162b860287beda777ad9c7a56e2ff5f82ec29f1657e89f90x7c025200106635602021-09-05 23:55:4211 days 1 hr ago0xdd7ec43863408cd689bba63260cce5926fe80c7dOUT 1inch: Router V30 BNB0.004946355
0xd0589c8e0ed39cdf35c60287ba85d765b55eda0944fa0b9ab1bd24d79ce343abTransfer106524502021-09-05 14:39:0211 days 10 hrs ago0xdd7ec43863408cd689bba63260cce5926fe80c7dOUT Uniswap Protocol: UNI token0 BNB0.000269475
0x14f36505600640bdb99d05f55fd370e4e758bafe688095f23d0f5cde33bd1c17Deposit106523192021-09-05 14:32:2911 days 10 hrs ago0xdd7ec43863408cd689bba63260cce5926fe80c7dOUT PancakeSwap: Auto CAKE Syrup Pool0 BNB0.00115376
0x9c96e9d185f77f88aabb4b3c6a90380c83dee251b6c6bc0d25e1e39b33a0b9d1Deposit All106522632021-09-05 14:29:4111 days 10 hrs ago0xdd7ec43863408cd689bba63260cce5926fe80c7dOUT 0x4a1f31e1014087b9f9e023147cf319ff1534b2090 BNB0.00132028
0xb85cce4ef678272edc00540693f5891e38bafc5d568fc9065a3c997740702ae2Approve106522302021-09-05 14:28:0211 days 10 hrs ago0xdd7ec43863408cd689bba63260cce5926fe80c7dOUT 0xa3421bd2b3b1578ff43ab95c10f667e5a3bbcef70 BNB0.00022039
0x8fbc7ee3b2ac1e31b8a3fe17b9967a80c6ae7682f61bbe980ffb843589b0c234Add Liquidity ET...106522162021-09-05 14:27:2011 days 10 hrs ago0xdd7ec43863408cd689bba63260cce5926fe80c7dOUT 0xcf0febd3f17cef5b47b0cd257acf6025c5bff3b728.231656340494404 BNB0.00087088
[ Download CSV Export 
Latest 6 internal transactions
Parent Txn Hash Block From To Value
0x07734cb40684f52d197c89ae21ab2402fe7677973c67fc9e549c95901b8b96f2106637382021-09-06 0:04:3611 days 1 hr ago 0x78df70615ffc8066cc0887917f2cd72092c864090xdd7ec43863408cd689bba63260cce5926fe80c7d1 wei
0xe0f9124d0d2e9434c6d13d1551963cab29db353decdb5a9cdc8a78681267a52e106521892021-09-05 14:25:5911 days 10 hrs ago 0x03c509fd85d51dc7e75fa2de06276cfa147486ea0xdd7ec43863408cd689bba63260cce5926fe80c7d9.530481234986128857 BNB
0xe2f1bcad5d975b4fdd82d0e028624b64bd9aba5e5f606c00cead521620066cf3106521462021-09-05 14:23:5011 days 10 hrs ago PancakeSwap: Router v20xdd7ec43863408cd689bba63260cce5926fe80c7d20.924903908798572019 BNB
0xd1824d9a96693f5ec5fe1e6a859ff0c9097ab2f7a840b6331830296796758085101828332021-08-20 3:15:0327 days 21 hrs ago Binance: WBNB Token0xdd7ec43863408cd689bba63260cce5926fe80c7d9.3 BNB
0x51052e670c1055494867c7c234e0e79bc6446a87cf5a77297529ee2aa69500b293617712021-07-21 21:39:3157 days 3 hrs ago PancakeSwap: Router0xdd7ec43863408cd689bba63260cce5926fe80c7d9.743461285605772333 BNB
0x88cadb4e031758de150dbac25262770e628c61e5e0dd9dcab66a41405adacbca89033742021-07-05 23:20:3773 days 1 hr ago PancakeSwap: Router v20xdd7ec43863408cd689bba63260cce5926fe80c7d0.023301230043229179 BNB
[ Download CSV Export 
Loading

Contract Name:
0 BNB

Compiler Version
0

Optimization Enabled:
0 BNB

Other Settings:
-NA-
Block Transaction Gas Used Reward
Age Block Fee Address BC Fee Address Voting Power Jailed Incoming
Block Uncle Number Difficulty Gas Used Reward
Loading
Loading
Make sure to use the "Vote Down" button for any spammy posts, and the "Vote Up" for interesting conversations.